Datum;"Wasserstand in cm";"Stationsnummer: 6970800";"Stationsname: Tantow";"Gew?sser: Salveybach";"Fehlwerte: -777"
"20.03.2024 00:00";96
"20.03.2024 00:15";96
"20.03.2024 00:30";96
"20.03.2024 00:45";96
"20.03.2024 01:00";96
"20.03.2024 01:15";96
"20.03.2024 01:30";96
"20.03.2024 01:45";96
"20.03.2024 02:00";96
"20.03.2024 02:15";96
"20.03.2024 02:30";96
"20.03.2024 02:45";96
"20.03.2024 03:00";97
"20.03.2024 03:15";97
"20.03.2024 03:30";97
"20.03.2024 03:45";97
"20.03.2024 04:00";97
"20.03.2024 04:15";97
"20.03.2024 04:30";97
"20.03.2024 04:45";97
"20.03.2024 05:00";97
"20.03.2024 05:15";97
"20.03.2024 05:30";97
"20.03.2024 05:45";97
"20.03.2024 06:00";97
"20.03.2024 06:15";97
"20.03.2024 06:30";97
"20.03.2024 06:45";97
"20.03.2024 07:00";96
"20.03.2024 07:15";96
"20.03.2024 07:30";96
"20.03.2024 07:45";96
"20.03.2024 08:00";96
"20.03.2024 08:15";96
"20.03.2024 08:30";96
"20.03.2024 08:45";96
"20.03.2024 09:00";96
"20.03.2024 09:15";96
"20.03.2024 09:30";96
"20.03.2024 09:45";96
"20.03.2024 10:00";96
"20.03.2024 10:15";96
"20.03.2024 10:30";96
"20.03.2024 10:45";96
"20.03.2024 11:00";96
"20.03.2024 11:15";96
"20.03.2024 11:30";96
"20.03.2024 11:45";96
"20.03.2024 12:00";96
"20.03.2024 12:15";96
"20.03.2024 12:30";96
"20.03.2024 12:45";96
"20.03.2024 13:00";96
"20.03.2024 13:15";96
"20.03.2024 13:30";96
"20.03.2024 13:45";96
"20.03.2024 14:00";96
"20.03.2024 14:15";96
"20.03.2024 14:30";96
"20.03.2024 14:45";96
"20.03.2024 15:00";96
"20.03.2024 15:15";96
"20.03.2024 15:30";96
"20.03.2024 15:45";96
"20.03.2024 16:00";95
"20.03.2024 16:15";95
"20.03.2024 16:30";95
"20.03.2024 16:45";95
"20.03.2024 17:00";95
"20.03.2024 17:15";95
"20.03.2024 17:30";95
"20.03.2024 17:45";95
"20.03.2024 18:00";95
"20.03.2024 18:15";95
"20.03.2024 18:30";95
"20.03.2024 18:45";95
"20.03.2024 19:00";95
"20.03.2024 19:15";95
"20.03.2024 19:30";94
"20.03.2024 19:45";94
"20.03.2024 20:00";94
"20.03.2024 20:15";94
"20.03.2024 20:30";94
"20.03.2024 20:45";94
"20.03.2024 21:00";94
"20.03.2024 21:15";94
"20.03.2024 21:30";94
"20.03.2024 21:45";94
"20.03.2024 22:00";94
"20.03.2024 22:15";94
"20.03.2024 22:30";94
"20.03.2024 22:45";94
"20.03.2024 23:00";94
"20.03.2024 23:15";94
"20.03.2024 23:30";94
"20.03.2024 23:45";94
"21.03.2024 00:00";94
"21.03.2024 00:15";94
"21.03.2024 00:30";94
"21.03.2024 00:45";94
"21.03.2024 01:00";94
"21.03.2024 01:15";94
"21.03.2024 01:30";94
"21.03.2024 01:45";94
"21.03.2024 02:00";95
"21.03.2024 02:15";95
"21.03.2024 02:30";95
"21.03.2024 02:45";95
"21.03.2024 03:00";95
"21.03.2024 03:15";95
"21.03.2024 03:30";96
"21.03.2024 03:45";96
"21.03.2024 04:00";96
"21.03.2024 04:15";96
"21.03.2024 04:30";96
"21.03.2024 04:45";96
"21.03.2024 05:00";96
"21.03.2024 05:15";97
"21.03.2024 05:30";97
"21.03.2024 05:45";97
"21.03.2024 06:00";97
"21.03.2024 06:15";97
"21.03.2024 06:30";97
"21.03.2024 06:45";97
"21.03.2024 07:00";97
"21.03.2024 07:15";97
"21.03.2024 07:30";97
"21.03.2024 07:45";98
"21.03.2024 08:00";98
"21.03.2024 08:15";98
"21.03.2024 08:30";98
"21.03.2024 08:45";98
"21.03.2024 09:00";98
"21.03.2024 09:15";98
"21.03.2024 09:30";98
"21.03.2024 09:45";98
"21.03.2024 10:00";98
"21.03.2024 10:15";98
"21.03.2024 10:30";98
"21.03.2024 10:45";98
"21.03.2024 11:00";98
"21.03.2024 11:15";98
"21.03.2024 11:30";98
"21.03.2024 11:45";98
"21.03.2024 12:00";98
"21.03.2024 12:15";98
"21.03.2024 12:30";98
"21.03.2024 12:45";98
"21.03.2024 13:00";98
"21.03.2024 13:15";98
"21.03.2024 13:30";98
"21.03.2024 13:45";99
"21.03.2024 14:00";99
"21.03.2024 14:15";99
"21.03.2024 14:30";99
"21.03.2024 14:45";99
"21.03.2024 15:00";98
"21.03.2024 15:15";98
"21.03.2024 15:30";98
"21.03.2024 15:45";98
"21.03.2024 16:00";98
"21.03.2024 16:15";98
"21.03.2024 16:30";98
"21.03.2024 16:45";98
"21.03.2024 17:00";98
"21.03.2024 17:15";98
"21.03.2024 17:30";98
"21.03.2024 17:45";98
"21.03.2024 18:00";98
"21.03.2024 18:15";98
"21.03.2024 18:30";98
"21.03.2024 18:45";98
"21.03.2024 19:00";98
"21.03.2024 19:15";98
"21.03.2024 19:30";98
"21.03.2024 19:45";98
"21.03.2024 20:00";98
"21.03.2024 20:15";98
"21.03.2024 20:30";98
"21.03.2024 20:45";98
"21.03.2024 21:00";98
"21.03.2024 21:15";98
"21.03.2024 21:30";98
"21.03.2024 21:45";98
"21.03.2024 22:00";98
"21.03.2024 22:15";98
"21.03.2024 22:30";98
"21.03.2024 22:45";98
"21.03.2024 23:00";98
"21.03.2024 23:15";98
"21.03.2024 23:30";98
"21.03.2024 23:45";98
"22.03.2024 00:00";98
"22.03.2024 00:15";98
"22.03.2024 00:30";98
"22.03.2024 00:45";98
"22.03.2024 01:00";98
"22.03.2024 01:15";98
"22.03.2024 01:30";98
"22.03.2024 01:45";98
"22.03.2024 02:00";98
"22.03.2024 02:15";98
"22.03.2024 02:30";98
"22.03.2024 02:45";98
"22.03.2024 03:00";98
"22.03.2024 03:15";98
"22.03.2024 03:30";98
"22.03.2024 03:45";98
"22.03.2024 04:00";98
"22.03.2024 04:15";98
"22.03.2024 04:30";98
"22.03.2024 04:45";98
"22.03.2024 05:00";98
"22.03.2024 05:15";98
"22.03.2024 05:30";98
"22.03.2024 05:45";98
"22.03.2024 06:00";98
"22.03.2024 06:15";98
"22.03.2024 06:30";98
"22.03.2024 06:45";98
"22.03.2024 07:00";98
"22.03.2024 07:15";98
"22.03.2024 07:30";98
"22.03.2024 07:45";98
"22.03.2024 08:00";98
"22.03.2024 08:15";98
"22.03.2024 08:30";98
"22.03.2024 08:45";98
"22.03.2024 09:00";98
"22.03.2024 09:15";98
"22.03.2024 09:30";98
"22.03.2024 09:45";98
"22.03.2024 10:00";98
"22.03.2024 10:15";98
"22.03.2024 10:30";98
"22.03.2024 10:45";98
"22.03.2024 11:00";98
"22.03.2024 11:15";98
"22.03.2024 11:30";98
"22.03.2024 11:45";98
"22.03.2024 12:00";98
"22.03.2024 12:15";98
"22.03.2024 12:30";98
"22.03.2024 12:45";98
"22.03.2024 13:00";98
"22.03.2024 13:15";98
"22.03.2024 13:30";98
"22.03.2024 13:45";98
"22.03.2024 14:00";98
"22.03.2024 14:15";98
"22.03.2024 14:30";98
"22.03.2024 14:45";98
"22.03.2024 15:00";98
"22.03.2024 15:15";98
"22.03.2024 15:30";98
"22.03.2024 15:45";98
"22.03.2024 16:00";98
"22.03.2024 16:15";98
"22.03.2024 16:30";98
"22.03.2024 16:45";98
"22.03.2024 17:00";98
"22.03.2024 17:15";98
"22.03.2024 17:30";98
"22.03.2024 17:45";98
"22.03.2024 18:00";98
"22.03.2024 18:15";98
"22.03.2024 18:30";98
"22.03.2024 18:45";98
"22.03.2024 19:00";98
"22.03.2024 19:15";98
"22.03.2024 19:30";98
"22.03.2024 19:45";98
"22.03.2024 20:00";98
"22.03.2024 20:15";98
"22.03.2024 20:30";98
"22.03.2024 20:45";98
"22.03.2024 21:00";98
"22.03.2024 21:15";98
"22.03.2024 21:30";98
"22.03.2024 21:45";98
"22.03.2024 22:00";98
"22.03.2024 22:15";98
"22.03.2024 22:30";98
"22.03.2024 22:45";98
"22.03.2024 23:00";98
"22.03.2024 23:15";98
"22.03.2024 23:30";98
"22.03.2024 23:45";98
"23.03.2024 00:00";98
"23.03.2024 00:15";98
"23.03.2024 00:30";99
"23.03.2024 00:45";99
"23.03.2024 01:00";99
"23.03.2024 01:15";99
"23.03.2024 01:30";99
"23.03.2024 01:45";99
"23.03.2024 02:00";99
"23.03.2024 02:15";99
"23.03.2024 02:30";99
"23.03.2024 02:45";99
"23.03.2024 03:00";99
"23.03.2024 03:15";99
"23.03.2024 03:30";99
"23.03.2024 03:45";99
"23.03.2024 04:00";99
"23.03.2024 04:15";99
"23.03.2024 04:30";99
"23.03.2024 04:45";99
"23.03.2024 05:00";99
"23.03.2024 05:15";99
"23.03.2024 05:30";100
"23.03.2024 05:45";100
"23.03.2024 06:00";100
"23.03.2024 06:15";100
"23.03.2024 06:30";100
"23.03.2024 06:45";100
"23.03.2024 07:00";100
"23.03.2024 07:15";100
"23.03.2024 07:30";100
"23.03.2024 07:45";100
"23.03.2024 08:00";100
"23.03.2024 08:15";100
"23.03.2024 08:30";100
"23.03.2024 08:45";100
"23.03.2024 09:00";100
"23.03.2024 09:15";100
"23.03.2024 09:30";100
"23.03.2024 09:45";100
"23.03.2024 10:00";100
"23.03.2024 10:15";100
"23.03.2024 10:30";100
"23.03.2024 10:45";100
"23.03.2024 11:00";100
"23.03.2024 11:15";100
"23.03.2024 11:30";100
"23.03.2024 11:45";100
"23.03.2024 12:00";100
"23.03.2024 12:15";100
"23.03.2024 12:30";100
"23.03.2024 12:45";100
"23.03.2024 13:00";100
"23.03.2024 13:15";100
"23.03.2024 13:30";100
"23.03.2024 13:45";100
"23.03.2024 14:00";100
"23.03.2024 14:15";100
"23.03.2024 14:30";100
"23.03.2024 14:45";100
"23.03.2024 15:00";100
"23.03.2024 15:15";100
"23.03.2024 15:30";100
"23.03.2024 15:45";100
"23.03.2024 16:00";100
"23.03.2024 16:15";100
"23.03.2024 16:30";100
"23.03.2024 16:45";100
"23.03.2024 17:00";101
"23.03.2024 17:15";101
"23.03.2024 17:30";101
"23.03.2024 17:45";101
"23.03.2024 18:00";101
"23.03.2024 18:15";101
"23.03.2024 18:30";101
"23.03.2024 18:45";101
"23.03.2024 19:00";102
"23.03.2024 19:15";102
"23.03.2024 19:30";102
"23.03.2024 19:45";102
"23.03.2024 20:00";102
"23.03.2024 20:15";102
"23.03.2024 20:30";103
"23.03.2024 20:45";103
"23.03.2024 21:00";103
"23.03.2024 21:15";103
"23.03.2024 21:30";103
"23.03.2024 21:45";103
"23.03.2024 22:00";104
"23.03.2024 22:15";104
"23.03.2024 22:30";104
"23.03.2024 22:45";104
"23.03.2024 23:00";104
"23.03.2024 23:15";104
"23.03.2024 23:30";104
"23.03.2024 23:45";104
"24.03.2024 00:00";104
"24.03.2024 00:15";104
"24.03.2024 00:30";105
"24.03.2024 00:45";105
"24.03.2024 01:00";105
"24.03.2024 01:15";105
"24.03.2024 01:30";105
"24.03.2024 01:45";105
"24.03.2024 02:00";105
"24.03.2024 02:15";105
"24.03.2024 02:30";105
"24.03.2024 02:45";105
"24.03.2024 03:00";105
"24.03.2024 03:15";105
"24.03.2024 03:30";105
"24.03.2024 03:45";105
"24.03.2024 04:00";105
"24.03.2024 04:15";105
"24.03.2024 04:30";105
"24.03.2024 04:45";105
"24.03.2024 05:00";105
"24.03.2024 05:15";105
"24.03.2024 05:30";105
"24.03.2024 05:45";105
"24.03.2024 06:00";105
"24.03.2024 06:15";105
"24.03.2024 06:30";105
"24.03.2024 06:45";105
"24.03.2024 07:00";105
"24.03.2024 07:15";105
"24.03.2024 07:30";105
"24.03.2024 07:45";105
"24.03.2024 08:00";105
"24.03.2024 08:15";105
"24.03.2024 08:30";105
"24.03.2024 08:45";105
"24.03.2024 09:00";105
"24.03.2024 09:15";105
"24.03.2024 09:30";105
"24.03.2024 09:45";105
"24.03.2024 10:00";105
"24.03.2024 10:15";105
"24.03.2024 10:30";105
"24.03.2024 10:45";105
"24.03.2024 11:00";105
"24.03.2024 11:15";105
"24.03.2024 11:30";105
"24.03.2024 11:45";105
"24.03.2024 12:00";105
"24.03.2024 12:15";105
"24.03.2024 12:30";105
"24.03.2024 12:45";105
"24.03.2024 13:00";105
"24.03.2024 13:15";105
"24.03.2024 13:30";105
"24.03.2024 13:45";105
"24.03.2024 14:00";105
"24.03.2024 14:15";105
"24.03.2024 14:30";105
"24.03.2024 14:45";105
"24.03.2024 15:00";105
"24.03.2024 15:15";105
"24.03.2024 15:30";105
"24.03.2024 15:45";105
"24.03.2024 16:00";105
"24.03.2024 16:15";106
"24.03.2024 16:30";106
"24.03.2024 16:45";106
"24.03.2024 17:00";106
"24.03.2024 17:15";106
"24.03.2024 17:30";106
"24.03.2024 17:45";106
"24.03.2024 18:00";106
"24.03.2024 18:15";105
"24.03.2024 18:30";105
"24.03.2024 18:45";105
"24.03.2024 19:00";105
"24.03.2024 19:15";105
"24.03.2024 19:30";105
"24.03.2024 19:45";105
"24.03.2024 20:00";105
"24.03.2024 20:15";105
"24.03.2024 20:30";105
"24.03.2024 20:45";105
"24.03.2024 21:00";105
"24.03.2024 21:15";105
"24.03.2024 21:30";105
"24.03.2024 21:45";105
"24.03.2024 22:00";105
"24.03.2024 22:15";105
"24.03.2024 22:30";105
"24.03.2024 22:45";106
"24.03.2024 23:00";106
"24.03.2024 23:15";106
"24.03.2024 23:30";106
"24.03.2024 23:45";106
"25.03.2024 00:00";106
"25.03.2024 00:15";106
"25.03.2024 00:30";106
"25.03.2024 00:45";106
"25.03.2024 01:00";106
"25.03.2024 01:15";106
"25.03.2024 01:30";106
"25.03.2024 01:45";106
"25.03.2024 02:00";106
"25.03.2024 02:15";106
"25.03.2024 02:30";106
"25.03.2024 02:45";106
"25.03.2024 03:00";106
"25.03.2024 03:15";106
"25.03.2024 03:30";106
"25.03.2024 03:45";106
"25.03.2024 04:00";106
"25.03.2024 04:15";106
"25.03.2024 04:30";106
"25.03.2024 04:45";106
"25.03.2024 05:00";106
"25.03.2024 05:15";106
"25.03.2024 05:30";106
"25.03.2024 05:45";106
"25.03.2024 06:00";106
"25.03.2024 06:15";106
"25.03.2024 06:30";106
"25.03.2024 06:45";106
"25.03.2024 07:00";106
"25.03.2024 07:15";106
"25.03.2024 07:30";106
"25.03.2024 07:45";106
"25.03.2024 08:00";106
"25.03.2024 08:15";106
"25.03.2024 08:30";106
"25.03.2024 08:45";106
"25.03.2024 09:00";106
"25.03.2024 09:15";106
"25.03.2024 09:30";106
"25.03.2024 09:45";106
"25.03.2024 10:00";106
"25.03.2024 10:15";105
"25.03.2024 10:30";105
"25.03.2024 10:45";105
"25.03.2024 11:00";105
"25.03.2024 11:15";105
"25.03.2024 11:30";105
"25.03.2024 11:45";105
"25.03.2024 12:00";105
"25.03.2024 12:15";106
"25.03.2024 12:30";105
"25.03.2024 12:45";105
"25.03.2024 13:00";105
"25.03.2024 13:15";105
"25.03.2024 13:30";105
"25.03.2024 13:45";105
"25.03.2024 14:00";105
"25.03.2024 14:15";105
"25.03.2024 14:30";105
"25.03.2024 14:45";105
"25.03.2024 15:00";105
"25.03.2024 15:15";105
"25.03.2024 15:30";105
"25.03.2024 15:45";105
"25.03.2024 16:00";105
"25.03.2024 16:15";105
"25.03.2024 16:30";105
"25.03.2024 16:45";105
"25.03.2024 17:00";105
"25.03.2024 17:15";105
"25.03.2024 17:30";105
"25.03.2024 17:45";105
"25.03.2024 18:00";105
"25.03.2024 18:15";105
"25.03.2024 18:30";105
"25.03.2024 18:45";105
"25.03.2024 19:00";104
"25.03.2024 19:15";104
"25.03.2024 19:30";104
"25.03.2024 19:45";104
"25.03.2024 20:00";104
"25.03.2024 20:15";104
"25.03.2024 20:30";104
"25.03.2024 20:45";104
"25.03.2024 21:00";104
"25.03.2024 21:15";104
"25.03.2024 21:30";104
"25.03.2024 21:45";104
"25.03.2024 22:00";104
"25.03.2024 22:15";104
"25.03.2024 22:30";104
"25.03.2024 22:45";104
"25.03.2024 23:00";104
"25.03.2024 23:15";104
"25.03.2024 23:30";104
"25.03.2024 23:45";104
"26.03.2024 00:00";104
"26.03.2024 00:15";104
"26.03.2024 00:30";104
"26.03.2024 00:45";104
"26.03.2024 01:00";104
"26.03.2024 01:15";104
"26.03.2024 01:30";104
"26.03.2024 01:45";104
"26.03.2024 02:00";104
"26.03.2024 02:15";104
"26.03.2024 02:30";104
"26.03.2024 02:45";104
"26.03.2024 03:00";104
"26.03.2024 03:15";104
"26.03.2024 03:30";104
"26.03.2024 03:45";104
"26.03.2024 04:00";104
"26.03.2024 04:15";104
"26.03.2024 04:30";104
"26.03.2024 04:45";104
"26.03.2024 05:00";104
"26.03.2024 05:15";104
"26.03.2024 05:30";104
"26.03.2024 05:45";104
"26.03.2024 06:00";104
"26.03.2024 06:15";104
"26.03.2024 06:30";104
"26.03.2024 06:45";104
"26.03.2024 07:00";104
"26.03.2024 07:15";104
"26.03.2024 07:30";103
"26.03.2024 07:45";103
"26.03.2024 08:00";103
"26.03.2024 08:15";103
"26.03.2024 08:30";103
"26.03.2024 08:45";103
"26.03.2024 09:00";103
"26.03.2024 09:15";103
"26.03.2024 09:30";103
"26.03.2024 09:45";103
"26.03.2024 10:00";103
"26.03.2024 10:15";103
"26.03.2024 10:30";103
"26.03.2024 10:45";103
"26.03.2024 11:00";103
"26.03.2024 11:15";103
"26.03.2024 11:30";103
"26.03.2024 11:45";103
"26.03.2024 12:00";103
"26.03.2024 12:15";103
"26.03.2024 12:30";103
"26.03.2024 12:45";103
"26.03.2024 13:00";103
"26.03.2024 13:15";103
"26.03.2024 13:30";103
"26.03.2024 13:45";103
"26.03.2024 14:00";103
"26.03.2024 14:15";103
"26.03.2024 14:30";103
"26.03.2024 14:45";103
"26.03.2024 15:00";103
"26.03.2024 15:15";103
"26.03.2024 15:30";103
"26.03.2024 15:45";103
"26.03.2024 16:00";102
"26.03.2024 16:15";102
"26.03.2024 16:30";102
"26.03.2024 16:45";102
"26.03.2024 17:00";102
"26.03.2024 17:15";102
"26.03.2024 17:30";102
"26.03.2024 17:45";102
"26.03.2024 18:00";102
"26.03.2024 18:15";102
"26.03.2024 18:30";102
"26.03.2024 18:45";102
"26.03.2024 19:00";102
"26.03.2024 19:15";102
"26.03.2024 19:30";102
"26.03.2024 19:45";102
"26.03.2024 20:00";102
"26.03.2024 20:15";102
"26.03.2024 20:30";102
"26.03.2024 20:45";102
"26.03.2024 21:00";102
"26.03.2024 21:15";102
"26.03.2024 21:30";102
"26.03.2024 21:45";102
"26.03.2024 22:00";102
"26.03.2024 22:15";102
"26.03.2024 22:30";102
"26.03.2024 22:45";102
"26.03.2024 23:00";102
"26.03.2024 23:15";102
"26.03.2024 23:30";102
"26.03.2024 23:45";102
"27.03.2024 00:00";102
"27.03.2024 00:15";102
"27.03.2024 00:30";102
"27.03.2024 00:45";102
"27.03.2024 01:00";102
"27.03.2024 01:15";102
"27.03.2024 01:30";102
"27.03.2024 01:45";102
"27.03.2024 02:00";102
"27.03.2024 02:15";102
"27.03.2024 02:30";102
"27.03.2024 02:45";102
"27.03.2024 03:00";102
"27.03.2024 03:15";102
"27.03.2024 03:30";102
"27.03.2024 03:45";102
"27.03.2024 04:00";102
"27.03.2024 04:15";102
"27.03.2024 04:30";102
"27.03.2024 04:45";102
"27.03.2024 05:00";102
"27.03.2024 05:15";102
"27.03.2024 05:30";102
"27.03.2024 05:45";102
"27.03.2024 06:00";102
"27.03.2024 06:15";102
"27.03.2024 06:30";101
"27.03.2024 06:45";101
"27.03.2024 07:00";101
"27.03.2024 07:15";101
"27.03.2024 07:30";101
"27.03.2024 07:45";101
"27.03.2024 08:00";101
"27.03.2024 08:15";101
"27.03.2024 08:30";101
"27.03.2024 08:45";101
"27.03.2024 09:00";101
"27.03.2024 09:15";101
"27.03.2024 09:30";101
"27.03.2024 09:45";101
"27.03.2024 10:00";101
"27.03.2024 10:15";101
"27.03.2024 10:30";101
"27.03.2024 10:45";101
"27.03.2024 11:00";101
"27.03.2024 11:15";101
"27.03.2024 11:30";101
"27.03.2024 11:45";101
"27.03.2024 12:00";101
"27.03.2024 12:15";101
"27.03.2024 12:30";101
"27.03.2024 12:45";101
"27.03.2024 13:00";101
"27.03.2024 13:15";101
"27.03.2024 13:30";101
"27.03.2024 13:45";101
"27.03.2024 14:00";102
"27.03.2024 14:15";102
"27.03.2024 14:30";102
"27.03.2024 14:45";102
"27.03.2024 15:00";102
"27.03.2024 15:15";103
"27.03.2024 15:30";103
"27.03.2024 15:45";103
"27.03.2024 16:00";103
"27.03.2024 16:15";103
"27.03.2024 16:30";103
"27.03.2024 16:45";103
"27.03.2024 17:00";103
"27.03.2024 17:15";103
"27.03.2024 17:30";103
"27.03.2024 17:45";103
"27.03.2024 18:00";103
"27.03.2024 18:15";103
"27.03.2024 18:30";103
"27.03.2024 18:45";103
"27.03.2024 19:00";103
"27.03.2024 19:15";102
"27.03.2024 19:30";102
"27.03.2024 19:45";102
"27.03.2024 20:00";102
"27.03.2024 20:15";102
"27.03.2024 20:30";102
"27.03.2024 20:45";102
"27.03.2024 21:00";101
"27.03.2024 21:15";101
"27.03.2024 21:30";101
"27.03.2024 21:45";101
"27.03.2024 22:00";101
"27.03.2024 22:15";101
"27.03.2024 22:30";101
"27.03.2024 22:45";101
"27.03.2024 23:00";101
"27.03.2024 23:15";101
"27.03.2024 23:30";101
"27.03.2024 23:45";101
"28.03.2024 00:00";101
"28.03.2024 00:15";101
"28.03.2024 00:30";101
"28.03.2024 00:45";101
"28.03.2024 01:00";101
"28.03.2024 01:15";101
"28.03.2024 01:30";101
"28.03.2024 01:45";101
"28.03.2024 02:00";101
"28.03.2024 02:15";101
"28.03.2024 02:30";101
"28.03.2024 02:45";101
"28.03.2024 03:00";101
"28.03.2024 03:15";101
"28.03.2024 03:30";101
"28.03.2024 03:45";101
"28.03.2024 04:00";101
"28.03.2024 04:15";101
"28.03.2024 04:30";101
"28.03.2024 04:45";101
"28.03.2024 05:00";101
"28.03.2024 05:15";101
"28.03.2024 05:30";101
"28.03.2024 05:45";101
"28.03.2024 06:00";101
"28.03.2024 06:15";101
"28.03.2024 06:30";101
"28.03.2024 06:45";101
"28.03.2024 07:00";101
"28.03.2024 07:15";101
"28.03.2024 07:30";100
"28.03.2024 07:45";100
"28.03.2024 08:00";100
"28.03.2024 08:15";100
"28.03.2024 08:30";100
"28.03.2024 08:45";100
"28.03.2024 09:00";100
"28.03.2024 09:15";100
"28.03.2024 09:30";100
"28.03.2024 09:45";100
"28.03.2024 10:00";100
"28.03.2024 10:15";100
"28.03.2024 10:30";100
"28.03.2024 10:45";100
"28.03.2024 11:00";99
"28.03.2024 11:15";99
"28.03.2024 11:30";99
"28.03.2024 11:45";99
"28.03.2024 12:00";99
"28.03.2024 12:15";99
"28.03.2024 12:30";99
"28.03.2024 12:45";99
"28.03.2024 13:00";99
"28.03.2024 13:15";99
"28.03.2024 13:30";99
"28.03.2024 13:45";99
"28.03.2024 14:00";99
"28.03.2024 14:15";98
"28.03.2024 14:30";98
"28.03.2024 14:45";98
"28.03.2024 15:00";98
"28.03.2024 15:15";98
"28.03.2024 15:30";98
"28.03.2024 15:45";98
"28.03.2024 16:00";98
"28.03.2024 16:15";98
"28.03.2024 16:30";98
"28.03.2024 16:45";98
"28.03.2024 17:00";98
"28.03.2024 17:15";98
"28.03.2024 17:30";98
"28.03.2024 17:45";98
"28.03.2024 18:00";98
"28.03.2024 18:15";98
"28.03.2024 18:30";98
"28.03.2024 18:45";98
"28.03.2024 19:00";99
"28.03.2024 19:15";99
"28.03.2024 19:30";99
"28.03.2024 19:45";99
"28.03.2024 20:00";99
"28.03.2024 20:15";100
"28.03.2024 20:30";100
"28.03.2024 20:45";100
"28.03.2024 21:00";100
"28.03.2024 21:15";100
"28.03.2024 21:30";101
"28.03.2024 21:45";101
"28.03.2024 22:00";101
"28.03.2024 22:15";101
"28.03.2024 22:30";101
"28.03.2024 22:45";101
"28.03.2024 23:00";101
"28.03.2024 23:15";101
"28.03.2024 23:30";101
"28.03.2024 23:45";101
"29.03.2024 00:00";101
"29.03.2024 00:15";101
"29.03.2024 00:30";101
"29.03.2024 00:45";101
"29.03.2024 01:00";100
"29.03.2024 01:15";100
"29.03.2024 01:30";100
"29.03.2024 01:45";100
"29.03.2024 02:00";100
"29.03.2024 02:15";100
"29.03.2024 02:30";100
"29.03.2024 02:45";100
"29.03.2024 03:00";100
"29.03.2024 03:15";100
"29.03.2024 03:30";100
"29.03.2024 03:45";100
"29.03.2024 04:00";100
"29.03.2024 04:15";100
"29.03.2024 04:30";100
"29.03.2024 04:45";100
"29.03.2024 05:00";100
"29.03.2024 05:15";100
"29.03.2024 05:30";100
"29.03.2024 05:45";100
"29.03.2024 06:00";99
"29.03.2024 06:15";99
"29.03.2024 06:30";99
"29.03.2024 06:45";99
"29.03.2024 07:00";99
"29.03.2024 07:15";99
"29.03.2024 07:30";99
"29.03.2024 07:45";99
"29.03.2024 08:00";99
"29.03.2024 08:15";99
"29.03.2024 08:30";99
"29.03.2024 08:45";99
"29.03.2024 09:00";99
"29.03.2024 09:15";99
"29.03.2024 09:30";99
"29.03.2024 09:45";99
"29.03.2024 10:00";99
"29.03.2024 10:15";99
"29.03.2024 10:30";99
"29.03.2024 10:45";99
"29.03.2024 11:00";99
"29.03.2024 11:15";99
"29.03.2024 11:30";99
"29.03.2024 11:45";99
"29.03.2024 12:00";99
"29.03.2024 12:15";99
"29.03.2024 12:30";99
"29.03.2024 12:45";99
"29.03.2024 13:00";99
"29.03.2024 13:15";99
"29.03.2024 13:30";99
"29.03.2024 13:45";99
"29.03.2024 14:00";99
"29.03.2024 14:15";99
"29.03.2024 14:30";99
"29.03.2024 14:45";99
"29.03.2024 15:00";99
"29.03.2024 15:15";99
"29.03.2024 15:30";99
"29.03.2024 15:45";99
"29.03.2024 16:00";99
"29.03.2024 16:15";99
"29.03.2024 16:30";99
"29.03.2024 16:45";99
"29.03.2024 17:00";99
"29.03.2024 17:15";99
"29.03.2024 17:30";99
"29.03.2024 17:45";99
"29.03.2024 18:00";99
"29.03.2024 18:15";99
"29.03.2024 18:30";99
"29.03.2024 18:45";99
"29.03.2024 19:00";99
"29.03.2024 19:15";99
"29.03.2024 19:30";99
"29.03.2024 19:45";99
"29.03.2024 20:00";99
"29.03.2024 20:15";99
"29.03.2024 20:30";99
"29.03.2024 20:45";99
"29.03.2024 21:00";99
"29.03.2024 21:15";99
"29.03.2024 21:30";99
"29.03.2024 21:45";99
"29.03.2024 22:00";99
"29.03.2024 22:15";99
"29.03.2024 22:30";99
"29.03.2024 22:45";99
"29.03.2024 23:00";99
"29.03.2024 23:15";99
"29.03.2024 23:30";99
"29.03.2024 23:45";99
"30.03.2024 00:00";99
"30.03.2024 00:15";99
"30.03.2024 00:30";99
"30.03.2024 00:45";99
"30.03.2024 01:00";99
"30.03.2024 01:15";99
"30.03.2024 01:30";99
"30.03.2024 01:45";99
"30.03.2024 02:00";99
"30.03.2024 02:15";99
"30.03.2024 02:30";99
"30.03.2024 02:45";99
"30.03.2024 03:00";99
"30.03.2024 03:15";99
"30.03.2024 03:30";99
"30.03.2024 03:45";100
"30.03.2024 04:00";100
"30.03.2024 04:15";100
"30.03.2024 04:30";100
"30.03.2024 04:45";100
"30.03.2024 05:00";100
"30.03.2024 05:15";100
"30.03.2024 05:30";100
"30.03.2024 05:45";100
"30.03.2024 06:00";100
"30.03.2024 06:15";100
"30.03.2024 06:30";99
"30.03.2024 06:45";99
"30.03.2024 07:00";99
"30.03.2024 07:15";99
"30.03.2024 07:30";99
"30.03.2024 07:45";99
"30.03.2024 08:00";99
"30.03.2024 08:15";99
"30.03.2024 08:30";99
"30.03.2024 08:45";99
"30.03.2024 09:00";99
"30.03.2024 09:15";99
"30.03.2024 09:30";99
"30.03.2024 09:45";99
"30.03.2024 10:00";98
"30.03.2024 10:15";98
"30.03.2024 10:30";98
"30.03.2024 10:45";98
"30.03.2024 11:00";98
"30.03.2024 11:15";98
"30.03.2024 11:30";98
"30.03.2024 11:45";98
"30.03.2024 12:00";98
"30.03.2024 12:15";98
"30.03.2024 12:30";98
"30.03.2024 12:45";98
"30.03.2024 13:00";98
"30.03.2024 13:15";98
"30.03.2024 13:30";97
"30.03.2024 13:45";97
"30.03.2024 14:00";97
"30.03.2024 14:15";97
"30.03.2024 14:30";97
"30.03.2024 14:45";97
"30.03.2024 15:00";97
"30.03.2024 15:15";97
"30.03.2024 15:30";97
"30.03.2024 15:45";97
"30.03.2024 16:00";97
"30.03.2024 16:15";97
"30.03.2024 16:30";97
"30.03.2024 16:45";97
"30.03.2024 17:00";97
"30.03.2024 17:15";97
"30.03.2024 17:30";97
"30.03.2024 17:45";98
"30.03.2024 18:00";98
"30.03.2024 18:15";98
"30.03.2024 18:30";98
"30.03.2024 18:45";98
"30.03.2024 19:00";99
"30.03.2024 19:15";99
"30.03.2024 19:30";99
"30.03.2024 19:45";99
"30.03.2024 20:00";99
"30.03.2024 20:15";99
"30.03.2024 20:30";100
"30.03.2024 20:45";100
"30.03.2024 21:00";100
"30.03.2024 21:15";100
"30.03.2024 21:30";100
"30.03.2024 21:45";100
"30.03.2024 22:00";100
"30.03.2024 22:15";100
"30.03.2024 22:30";100
"30.03.2024 22:45";100
"30.03.2024 23:00";100
"30.03.2024 23:15";100
"30.03.2024 23:30";100
"30.03.2024 23:45";100
"31.03.2024 00:00";100
"31.03.2024 00:15";100
"31.03.2024 00:30";100